Location: Peebles
(55.6412°N, 3.1714°W)
Time: 18:55:54
(UTC+01:00)

Envisat - Pass Details

Date: 25 February 2024
Orbit: 762 x 764 km, 98.3° (Epoch: 20 April)

Event Time Altitude Azimuth Distance (km) Brightness Sun altitude
Rises 03:26:21 0° 18° (NNE) 3,246 6.9 -31.8°
Reaches altitude 10° 03:28:44 10° 23° (NNE) 2,315 6.1 -31.5°
Enters shadow 03:33:24 50° 86° (E) 969 3.7 -30.9°
